Miscellaneous Local Product
Issued by NWS North Platte, NE

Home | Current Version | Previous Version | Text Only | Print | Product List | Glossary On
Versions: 1 2 3 4 5 6 7 8 9 10 11 12 13 14 15 16 17 18 19 20 21 22 23 24 25 26 27 28 29 30 31 32 33 34 35 36 37 38 39 40 41 42 43 44 45 46 47 48 49 50
026
AXUS43 KLBF 201310
MISLBF


WESTERN AND NORTH CENTRAL NEBRASKA HOURLY WEATHER ROUNDUP
NATIONAL WEATHER SERVICE NORTH PLATTE NE
700 AM CST TUE FEB 20 2018

NOTE: "FAIR" INDICATES FEW OR NO CLOUDS BELOW 12,000 FEET WITH NO
SIGNIFICANT WEATHER AND/OR OBSTRUCTIONS TO VISIBILITY.

NOTE: STATIONS NOT REPORTING VARIABLES SUCH AS SKY/WEATHER OR
PRESSURE ARE PROVIDED BY RAWS AND APRS NETWORKS AND ARE NOT UNDER
NATIONAL WEATHER SERVICE QUALITY CONTROL.

...OBSERVATIONS IN AND NEAR THE EASTERN PANHANDLE OF NEBRASKA...

CITY           SKY/WX    TMP DP  RH WIND       PRES   REMARKS
PINE RIDGE     MOCLDY   -10 -13  86 CALM      30.03R FOG
GORDON         FLURRIES  -6 -11  78 W7        29.98R WCI -20
CHADRON        PTCLDY   -12 -16  82 W3        30.04R
ALLIANCE       CLEAR    -14 -17  87 N5        29.94S WCI -26
SIDNEY         CLEAR     -5 -10  79 NW13      29.93R WCI -24
$$

...OBSERVATIONS IN NORTHERN NEBRASKA AND FAR SOUTHERN SOUTH DAKOTA...

CITY           SKY/WX    TMP DP  RH WIND       PRES   REMARKS
WINNER         LGT SNOW   4  -1  80 NW17      30.07R WCI -16
VALENTINE      LGT SNOW   2  -4  76 NW14      30.03R WCI -16
AINSWORTH      FLURRIES   3  -2  81 NW18      30.02S WCI -18
O`NEILL        FLURRIES   3  -1  84 NW17G24   30.00S WCI -17
THEDFORD       CLOUDY     3  -2  77 NW15G21   30.01R WCI -15
BROKEN BOW     MOCLDY     4  -3  73 NW20G28   29.99R WCI -17
ORD            CLEAR      5  -1  76 NW18      29.99S WCI -15
ALBION         PTCLDY     7   1  76 NW17      30.00R WCI -12
$$

...OBSERVATIONS IN SOUTHWEST NEBRASKA AND FAR NORTHEAST COLORADO...

CITY           SKY/WX    TMP DP  RH WIND       PRES   REMARKS
WRAY           FAIR      -2  -8  78 NW5       30.00R WCI -12
HOLYOKE        FAIR       3  -2  78 NW8       29.98R WCI -10
IMPERIAL       PTCLDY     1  -4  79 NW14      30.00R WCI -17
OGALLALA       FLURRIES   4  -3  72 NW6       30.01R WCI  -7
NORTH PLATTE   PTCLDY     3  -5  69 NW13      29.99S WCI -14
MCCOOK         CLOUDY     7  -1  70 NW18      30.04R WCI -12
LEXINGTON      CLOUDY     8   0  69 NW18G28   30.02R WCI -11
GOTHENBURG       N/A      4  -3  74 NW12        N/A  WCI -12
CALLAWAY         N/A      2  -2  84 NW17        N/A  WCI -18
$$

...OBSERVATIONS IN CENTRAL LINCOLN COUNTY AREA...

CITY           SKY/WX    TMP DP  RH WIND       PRES   REMARKS
N.P. AIRPORT   PTCLDY     3  -5  69 NW13      29.99S WCI -14
$$

...OBSERVATIONS ACROSS THE ROCKIES AND WESTERN HIGH PLAINS...

CITY           SKY/WX    TMP DP  RH WIND       PRES   REMARKS
RAPID CITY     MIX PCPN  -1  -6  79 N12       30.03R WCI -18
SCOTTSBLUFF    CLEAR     -8 -12  83 W10       29.98R WCI -26
CHEYENNE       CLEAR    -11 -15  82 W3        29.78R
DENVER         FLURRIES  -1  -7  75 E6        29.86R WCI -13
BERTHOUD PASS  LGT SNOW  -8 -18  59 MISG      29.44R
COPPER MTN     LGT SNOW   1  -6  71 W14       29.49R WCI -17
MONARCH PASS   CLEAR      0  -6  78 W30G41    29.61S WCI -26
ASPEN          LGT SNOW  10   7  87 CALM      29.71R FOG
LARAMIE        PTCLDY   -18 -19  96 W5        29.71R WCI -31
CASPER         MOCLDY   -13 -18  78 SW14      29.86R WCI -35
$$

...OBSERVATIONS ACROSS THE NORTHERN PLAINS...

CITY           SKY/WX    TMP DP  RH WIND       PRES   REMARKS
BISMARCK       LGT SNOW   5   1  83 NW7       30.13R FOG     WCI  -7
FARGO          LGT SNOW   6   2  83 N21       30.06R FOG     WCI -14
PIERRE         LGT SNOW   3   0  87 NW14      30.11R FOG     WCI -15
SIOUX FALLS    FLURRIES   9   4  80 NW16      29.96S WCI  -8
$$

...OBSERVATIONS ACROSS THE CENTRAL AND SOUTHERN PLAINS...

CITY           SKY/WX    TMP DP  RH WIND       PRES   REMARKS
OMAHA          CLOUDY    19  15  84 NW13      29.98R WCI   6
GRAND ISLAND   CLOUDY     9   2  73 NW20G28   30.03R WCI -10
KANSAS CITY    FRZ DRZL  29  28  96 N16       29.88R FOG     WCI  17
WICHITA        CLOUDY    23  21  92 N21G32    29.92R WCI   8
DODGE CITY     LGT SNOW  13   9  84 N22G31    29.98R FOG     WCI  -6
OKLAHOMA CITY  FOG       41  40  96 N23       29.79R VSB 1/4
DALLAS         MOCLDY    66  63  90 SE12      29.89R
AMARILLO       CLOUDY    22  16  78 N20G28    29.87R WCI   7
$$




USA.gov is the U.S. government's official web portal to all federal, state and local government web resources and services.